SCP
1 1 1 1 0 1 1 1 1 1 1 1 1 0 0 0 0 0 0 0 0 0 0 0 0 0 0 0 0 0 0 0 0 0 0 0 0 0 0 0 0 0 0
1 1 1 1 1 1 1 1 1 1 1 1 1 1 0 0 0 0 0 0 0 0 0 0 0 0 0 0 0 0 0 0 0 0 0 0 0 0 0 0 0 0 0
1 1 1 1 1 1 1 1 2 1 1 1 1 1 0 0 0 0 0 0 0 0 0 0 0 0 0 0 0 0 0 0 0 0 0 0 0 0 0 0 0 0 0
1 1 1 1 1 1 2 2 2 2 2 1 1 1 0 0 0 0 0 0 0 0 0 0 0 0 0 0 0 0 0 0 0 0 0 0 0 0 0 0 0 0 0
1 1 1 1 1 1 2 2 3 2 2 1 1 0 0 0 0 0 0 0 0 0 0 0 0 0 0 0 0 0 0 0 0 0 0 0 0 0 0 0 0 0 0
1 1 1 1 1 1 2 2 2 2 2 1 1 0 0 0 0 0 0 0 0 0 0 0 0 0 0 0 0 0 0 0 0 0 0 0 0 0 0 0 0 0 0
1 1 1 1 1 1 1 2 2 2 1 1 1 0 0 0 0 0 0 0 0 0 0 0 0 0 0 0 0 0 0 0 0 0 0 0 0 0 0 0 0 0 0
1 1 1 1 1 1 1 1 1 1 1 1 1 0 0 0 0 0 0 0 0 0 0 0 0 0 0 0 0 0 0 0 0 0 0 0 0 0 0 0 0 0 0
1 1 2 2 1 1 1 1 1 1 1 1 1 1 0 0 0 0 0 0 0 0 0 0 0 0 0 0 0 0 0 0 0 0 0 0 0 0 0 0 0 0 0
2 2 2 2 2 1 1 1 1 1 1 1 1 1 0 0 0 0 0 0 0 0 0 0 0 0 0 0 0 0 0 0 0 0 0 0 0 0 0 0 0 0 0
3 3 2 2 2 1 1 1 1 1 1 1 1 1 0 0 0 0 0 0 0 0 0 0 0 0 0 0 0 0 0 0 0 0 0 0 0 0 0 0 0 0 0
4 3 3 2 2 2 2 2 1 1 1 1 1 1 0 0 0 0 0 0 0 0 0 0 0 0 0 0 0 0 0 0 0 0 0 0 0 0 0 0 0 0 0
4 4 3 3 3 2 2 2 2 1 1 1 1 1 1 1 0 0 0 0 0 0 0 0 0 0 0 0 0 0 0 0 0 0 0 0 0 0 0 0 0 0 0
5 4 4 4 3 3 3 2 2 2 1 1 1 1 1 1 1 0 0 0 0 0 0 0 0 0 0 0 0 0 0 0 0 0 1 1 0 0 0 0 0 0 0
6 5 5 5 5 4 3 3 2 2 2 1 1 1 1 1 1 1 1 0 0 0 0 0 0 0 0 0 0 0 0 0 0 0 1 1 0 0 0 0 0 0 0
6 6 6 6 5 4 3 3 2 2 2 1 1 1 1 1 1 1 1 1 0 0 0 0 0 0 0 0 0 0 0 0 0 0 1 1 0 0 0 0 0 0 0
5 5 5 5 4 4 3 3 3 2 2 2 1 1 1 1 1 1 1 1 1 0 0 0 0 0 0 0 0 0 0 0 0 0 0 0 0 0 0 0 0 0 0
4 4 3 3 3 3 4 3 3 3 2 2 2 1 1 1 1 1 1 1 0 0 0 0 0 0 0 0 0 1 0 0 0 0 0 0 0 0 0 0 0 0 0
4 3 3 2 2 3 4 4 4 3 3 2 2 2 1 1 1 1 1 1 0 0 0 0 0 0 0 0 0 0 0 0 0 0 0 0 0 0 0 0 0 0 0
3 3 2 2 3 3 3 3 3 3 3 2 2 2 1 1 1 1 1 1 0 0 0 0 0 0 0 0 0 0 0 0 0 0 0 0 0 0 0 0 0 0 0
3 2 2 2 3 3 3 3 3 3 3 2 2 2 1 1 1 1 1 1 0 0 0 0 0 0 0 0 0 0 0 0 0 0 0 0 0 0 0 0 0 0 0
2 2 2 2 2 3 3 2 2 2 2 2 2 1 1 1 1 1 0 0 0 0 0 0 0 0 0 0 0 0 0 0 0 0 0 0 0 0 0 0 0 0 0
2 2 2 2 2 3 3 3 2 3 2 2 2 1 1 1 1 0 0 0 0 0 0 0 0 0 0 0 0 0 0 0 0 0 0 0 0 0 0 0 0 0 0
2 2 2 3 3 3 3 3 3 3 3 2 2 2 2 1 1 0 0 0 0 0 0 0 0 0 0 0 0 0 0 0 0 0 0 0 0 0 0 0 0 0 0
1 1 2 3 3 3 3 3 3 3 3 3 2 2 2 1 1 1 0 0 0 0 0 0 0 0 0 0 0 0 0 0 0 0 0 0 0 0 0 0 0 0 0
1 1 1 2 2 3 3 3 3 3 3 3 3 2 2 1 1 1 1 0 0 0 0 0 0 0 0 0 0 0 0 0 0 0 0 0 0 0 0 0 0 0 0
Wind_Speed
15 17 18 15 14 14 15 15 15 15 15 15 14 14 13 12 11 11 10 10 10 10 10 11 11 11 11 12 12 12 12 12 13 13 14 14 14 14 14 13 13 14 15
18 19 19 16 15 15 15 15 15 15 15 15 14 13 12 12 11 11 10 10 10 10 11 11 11 11 11 11 11 11 11 12 12 13 14 14 14 13 11 10 11 13 14
20 20 19 16 15 15 15 15 15 15 15 14 14 13 12 12 11 11 10 10 11 11 11 11 11 11 11 11 10 10 11 11 11 11 10 11 12 12 11 12 15 14 14
20 19 18 18 16 16 15 15 15 15 14 14 13 13 12 12 11 11 11 11 11 11 11 11 10 10 10 10 10 10 10 10 9 7 7 9 11 12 12 13 13 13 13
19 18 18 19 17 16 16 15 15 15 14 14 13 13 12 11 11 11 11 11 10 10 10 10 10 10 9 9 9 9 9 9 6 5 8 8 10 11 12 12 12 12 12
19 18 20 19 18 17 16 15 15 15 14 13 13 12 12 11 11 11 10 10 10 10 10 10 9 9 9 8 8 8 8 6 7 7 7 8 9 10 11 11 11 12 11
18 17 20 19 18 17 16 15 15 14 14 13 12 11 11 11 11 10 10 10 10 10 10 9 8 8 7 7 7 6 6 3 2 7 6 7 10 9 10 10 10 11 11
18 18 19 19 18 17 16 15 15 14 14 13 12 11 11 11 10 10 10 10 10 9 9 8 7 7 6 6 5 5 5 5 5 6 6 8 10 8 9 9 9 10 10
17 17 18 18 17 17 15 15 15 14 13 13 12 11 11 10 10 10 9 9 9 9 8 7 7 6 6 5 5 5 4 4 2 5 6 7 9 8 9 9 9 9 9
16 16 16 16 16 15 15 15 15 14 13 12 12 11 11 10 10 9 9 9 8 8 7 6 6 5 5 5 5 5 5 6 3 6 5 9 9 8 9 8 8 8 8
15 14 15 15 15 14 14 15 15 14 13 12 11 11 10 9 9 8 9 8 7 7 6 6 5 4 4 6 6 5 6 3 4 3 5 11 8 7 8 8 8 8 8
16 15 13 14 13 13 11 12 10 10 11 9 9 10 7 5 4 6 10 7 7 7 6 5 4 5 7 5 8 8 4 3 4 4 7 9 7 7 7 6 6 7 7
17 15 14 13 13 12 9 9 7 6 7 8 9 8 5 5 5 5 5 6 6 6 4 6 5 2 1 2 1 2 2 2 2 3 9 9 6 6 6 6 6 6 6
17 16 14 14 12 10 9 8 8 7 6 6 7 8 6 4 4 4 3 3 3 2 2 1 1 2 1 1 1 1 3 1 2 3 7 8 6 7 7 7 6 6 6
16 15 13 13 12 10 8 7 8 7 7 7 7 6 6 5 4 4 2 2 1 2 2 2 1 2 1 2 2 2 1 2 2 2 6 8 6 6 6 7 7 7 7
16 16 14 14 12 11 9 7 7 7 6 7 6 7 6 4 4 4 3 2 1 1 1 1 1 2 2 1 2 2 1 2 3 1 4 8 8 6 5 6 7 7 7
15 15 14 13 13 12 10 9 7 7 7 6 6 7 7 6 5 4 3 3 2 2 2 2 2 2 2 3 2 3 2 2 3 2 2 3 6 8 6 6 6 6 7
13 14 14 12 13 12 9 8 6 6 7 6 6 6 7 6 5 4 3 3 2 2 2 2 2 2 2 2 2 2 2 3 3 3 3 3 2 4 7 7 6 6 6
12 13 14 14 13 13 11 8 7 6 6 6 6 6 7 6 6 4 3 3 4 3 2 2 2 2 2 2 3 3 2 2 2 3 2 3 3 3 4 7 7 6 6
11 12 13 14 13 12 9 7 6 7 6 6 6 6 7 6 6 5 4 4 4 3 3 1 2 1 1 2 2 3 2 2 2 3 3 3 3 3 3 4 5 6 6
11 11 12 13 13 11 9 9 8 7 6 6 6 7 8 7 7 5 4 5 4 3 2 4 3 5 3 2 3 4 3 3 3 3 2 2 3 3 2 3 2 2 5
12 12 12 13 13 13 10 8 6 6 5 5 5 7 8 7 7 6 5 5 4 3 4 3 3 3 3 3 3 3 4 5 3 3 3 2 2 2 3 3 2 2 2
12 13 12 13 13 13 12 8 7 6 5 6 7 6 7 8 7 5 6 4 4 5 4 4 4 5 3 4 3 3 2 2 5 4 3 2 2 1 2 3 3 3 3
12 12 12 13 13 13 13 11 12 9 8 8 7 6 7 7 7 7 6 5 5 4 4 5 4 3 4 4 4 2 3 3 2 4 5 4 3 2 1 1 2 3 3
11 12 11 12 13 13 13 13 12 10 8 7 7 8 8 7 7 7 7 6 5 4 4 2 3 4 4 4 3 4 3 2 4 3 3 4 4 4 3 2 1 2 3
11 11 11 12 12 13 13 13 13 12 10 10 10 9 8 7 7 8 7 6 6 4 5 4 4 4 3 2 3 3 4 4 4 3 3 4 4 3 3 2 2 2 2
Wind_Direction
158 144 145 150 146 142 138 136 134 133 133 133 132 130 128 125 120 116 112 109 106 103 100 96 95 96 95 96 98 99 102 103 105 107 106 106 107 109 112 118 121 108 110
150 143 147 150 147 143 139 136 134 133 133 133 132 131 130 127 124 120 116 112 109 105 102 99 98 97 96 96 98 100 103 106 108 111 114 112 108 109 109 104 93 106 114
148 143 150 150 147 143 139 137 136 135 134 133 133 132 130 127 124 120 116 111 107 104 101 99 98 98 97 98 99 102 103 106 110 122 139 122 113 110 107 103 104 113 113
148 147 152 148 148 144 141 139 138 137 136 134 133 132 129 125 122 118 114 109 106 104 102 100 100 100 100 100 102 104 105 107 118 163 140 116 118 114 115 114 115 114 114
148 147 143 151 149 147 144 142 140 139 137 136 134 131 129 126 122 117 114 111 109 107 104 102 101 101 101 101 103 108 111 115 146 179 105 107 109 118 119 119 120 118 117
149 150 145 154 151 149 146 144 142 140 138 137 135 132 129 126 121 117 115 113 111 108 105 102 101 101 102 102 106 112 118 138 194 113 113 119 115 124 123 122 121 121 120
154 151 147 155 152 151 149 147 145 142 140 138 136 133 128 124 121 118 115 113 111 108 105 102 98 98 99 101 104 113 131 189 154 110 121 114 112 126 128 126 125 125 123
156 153 146 154 154 153 152 151 148 145 143 140 137 133 128 123 120 118 115 114 111 108 106 102 98 95 93 94 97 111 143 228 140 122 118 110 112 131 129 128 129 129 128
159 155 153 158 158 156 155 154 150 148 144 141 138 135 130 126 123 120 118 116 114 113 110 105 99 95 90 91 98 109 137 269 173 121 124 113 123 137 135 133 135 134 134
164 160 159 161 159 161 159 156 151 148 146 143 142 139 135 134 130 129 136 120 118 116 111 105 101 97 97 100 108 120 157 224 153 131 123 116 132 144 143 142 142 142 141
168 164 165 161 163 165 160 153 156 152 149 152 151 146 160 159 144 154 110 118 122 119 110 104 100 106 135 137 128 150 199 209 127 111 102 112 145 154 151 150 151 151 152
173 171 169 164 163 166 159 155 163 162 157 171 153 159 165 139 141 125 118 124 123 124 127 116 124 181 223 166 152 192 199 164 144 133 107 126 151 158 152 155 155 158 159
172 172 171 166 166 168 158 161 164 159 158 165 155 158 149 154 152 145 149 147 148 163 156 144 189 198 176 76 180 175 103 170 149 126 117 140 155 158 159 164 164 163 159
174 175 173 166 170 170 164 163 165 162 163 160 156 168 159 163 156 142 155 142 163 151 128 174 151 116 97 137 175 157 157 181 130 101 116 144 160 165 169 173 174 173 165
174 175 173 169 170 169 167 173 169 165 165 157 158 167 166 166 162 147 140 150 182 140 164 188 160 130 172 172 171 153 134 109 113 128 120 142 158 170 177 178 180 183 180
178 177 173 173 172 172 172 174 168 167 164 160 163 163 174 168 158 162 166 164 162 177 97 202 140 171 187 138 158 139 151 124 118 147 137 143 153 166 180 180 182 186 189
178 177 174 174 174 177 176 177 173 170 167 167 161 162 173 174 164 175 162 176 156 140 155 186 168 190 179 166 145 136 141 134 123 128 134 150 152 158 168 176 181 189 198
177 177 177 176 174 175 176 178 174 174 167 168 165 163 173 169 168 183 170 165 155 179 180 158 212 198 164 172 146 148 141 141 138 152 157 159 158 155 159 167 174 184 199
179 178 178 177 176 176 172 173 176 174 174 171 168 168 168 171 172 186 175 143 186 186 190 205 143 228 166 173 164 155 161 146 149 154 147 157 149 165 154 153 170 183 194
181 181 181 179 178 175 170 168 171 173 174 174 170 168 168 170 176 185 175 169 198 185 183 166 144 186 196 196 164 128 146 140 161 138 174 150 160 170 168 157 174 175 182
181 182 182 181 180 174 172 175 173 172 171 173 171 167 173 172 171 193 181 170 207 181 191 184 190 171 189 183 185 166 152 146 127 141 146 156 147 153 153 164 194 179 169
184 183 183 185 181 180 176 173 172 161 167 167 169 166 176 176 180 188 187 189 186 172 187 189 213 221 177 203 233 200 177 161 172 145 153 157 140 149 158 153 137 180 225
186 187 185 185 181 181 172 161 155 154 166 167 170 172 180 182 185 185 186 199 183 204 179 196 202 219 204 193 247 261 233 181 156 156 153 140 147 153 156 141 161 165 189
187 188 187 183 180 179 173 172 174 180 181 177 175 169 173 186 187 185 188 189 197 199 168 200 189 209 225 205 184 258 319 4 266 161 172 163 164 181 156 194 156 163 183
184 183 183 181 179 178 179 180 184 187 182 168 170 165 178 182 191 189 186 188 192 200 182 201 169 227 223 236 210 196 200 209 259 262 175 171 181 178 172 189 176 172 163
180 178 178 177 178 178 181 184 189 185 176 169 175 173 183 179 187 187 188 190 196 195 181 192 196 200 239 251 260 233 222 222 225 235 219 209 198 177 183 186 206 184 187